Weather History for Fort Myers, FL

Change the Weather History Date:

Friday, November 29, 2013

  Actual Average Record
Temperature  
Mean Temperature 66 °F 69 °F  
Max Temperature 78 °F 79 °F 89 °F (1990)
Min Temperature 54 °F 60 °F 37 °F (1959)
Degree Days  
Heating Degree Days 0 1  
Month to date heating degree days 9 14  
Since 1 July heating degree days 9 16  
Cooling Degree Days 1 5  
Month to date cooling degree days 247 211  
Year to date cooling degree days 3870 3859  
Growing Degree Days 16 (Base 50)    
Moisture  
Dew Point 54 °F    
Average Humidity 71    
Maximum Humidity 93    
Minimum Humidity 48    
Precipitation  
Precipitation 0.00 in 0.05 in 1.16 in (2005)
Month to date precipitation 1.43 1.90  
Year to date precipitation 53.29 54.16  
Sea Level Pressure  
Sea Level Pressure 30.26 in    
Wind  
Wind Speed 13 mph (NE)    
Max Wind Speed 23 mph    
Max Gust Speed 28 mph    
Visibility 10 miles    
Events      
T = Trace of Precipitation, MM = Missing Value Source: NWS Daily Summary

Daily Weather History Graph

Daily Weather History Graph

Search for Another Location

Airport:

Trip Planner

Search our weather history database for the weather conditions in past years. The results will help you decide how hot, cold, wet, or windy it might be!

Date:

Astronomy

Nov. 29, 2013 Rise Set
Actual Time 6:57 AM EST 5:34 PM EST
Civil Twilight 6:32 AM EST 5:59 PM EST
Nautical Twilight 6:03 AM EST 6:27 PM EST
Astronomical Twilight 5:35 AM EST 6:55 PM EST
Moon 3:19 AM EST (11/29) 3:02 PM EST (11/29)
Length of Visible Light 11h 27m
Length of Day
10h 36m
Waning Crescent, 14% of the Moon is Illuminated
Nov 29
Waning Crescent
Dec 2
New
Dec 9
First Quarter
Dec 17
Full
Dec 25
Last Quarter

Hourly Weather History & Observations

Time (EST) Temp. Dew Point Humidity Pressure Visibility Wind Dir Wind Speed Gust Speed Precip Events Conditions
12:53 AM 55.9 °F 52.0 °F 87% 30.27 in 10.0 mi NNE 9.2 mph - N/A   Clear
1:53 AM 55.0 °F 52.0 °F 89% 30.26 in 10.0 mi NNE 10.4 mph - N/A   Clear
2:53 AM 54.0 °F 51.1 °F 90% 30.25 in 10.0 mi NNE 12.7 mph - N/A   Clear
3:53 AM 54.0 °F 51.1 °F 90% 30.26 in 10.0 mi NNE 9.2 mph - N/A   Clear
4:53 AM 54.0 °F 51.1 °F 90% 30.26 in 10.0 mi NNE 8.1 mph - N/A   Clear
5:53 AM 54.0 °F 51.1 °F 90% 30.27 in 10.0 mi NE 9.2 mph - N/A   Clear
6:53 AM 55.0 °F 51.1 °F 86% 30.28 in 10.0 mi NE 9.2 mph - N/A   Clear
7:53 AM 59.0 °F 51.1 °F 75% 30.30 in 10.0 mi NE 9.2 mph - N/A   Clear
8:53 AM 64.0 °F 52.0 °F 65% 30.31 in 10.0 mi ENE 10.4 mph - N/A   Clear
9:53 AM 69.1 °F 53.1 °F 57% 30.31 in 10.0 mi NE 16.1 mph 19.6 mph N/A   Clear
10:53 AM 72.0 °F 55.0 °F 55% 30.30 in 10.0 mi NE 17.3 mph 23.0 mph N/A   Clear
11:53 AM 75.0 °F 55.9 °F 51% 30.27 in 10.0 mi NE 19.6 mph 24.2 mph N/A   Partly Cloudy
12:53 PM 75.9 °F 57.0 °F 52% 30.24 in 10.0 mi NE 16.1 mph 27.6 mph N/A   Partly Cloudy
1:53 PM 78.1 °F 57.0 °F 48% 30.22 in 10.0 mi ENE 15.0 mph 24.2 mph N/A   Partly Cloudy
2:53 PM 75.9 °F 55.9 °F 50% 30.20 in 10.0 mi ENE 12.7 mph 23.0 mph N/A   Clear
3:53 PM 73.9 °F 55.9 °F 53% 30.21 in 10.0 mi NE 17.3 mph 25.3 mph N/A   Partly Cloudy
4:53 PM 73.9 °F 57.0 °F 55% 30.22 in 10.0 mi NE 12.7 mph - N/A   Clear
5:53 PM 71.1 °F 57.0 °F 61% 30.23 in 10.0 mi NE 11.5 mph - N/A   Clear
6:53 PM 69.1 °F 57.0 °F 65% 30.25 in 10.0 mi NE 15.0 mph - N/A   Scattered Clouds
7:53 PM 66.9 °F 57.0 °F 70% 30.25 in 10.0 mi NE 11.5 mph - N/A   Clear
8:53 PM 64.9 °F 57.0 °F 75% 30.27 in 10.0 mi NE 12.7 mph 20.7 mph N/A   Clear
9:53 PM 62.1 °F 55.9 °F 80% 30.28 in 10.0 mi NE 12.7 mph - N/A   Clear
10:53 PM 61.0 °F 55.0 °F 81% 30.28 in 10.0 mi NE 13.8 mph - N/A   Clear
11:53 PM 60.1 °F 55.0 °F 83% 30.27 in 10.0 mi NNE 11.5 mph - N/A   Clear